Regional Weather Roundup
Issued by NWS

Home | Current Version | Previous Version | Text Only | Print | Product List | Glossary On
Versions: 1 2 3 4 5 6 7 8 9 10 11 12 13 14 15 16 17 18 19 20 21 22 23 24 25 26 27 28 29 30 31 32 33 34 35 36 37 38 39 40 41 42 43 44 45 46 47 48 49 50
000
ASUS42 KTBW 301916
RWRFL
FLORIDA REGIONAL WEATHER ROUNDUP
NATIONAL WEATHER SERVICE TAMPA BAY RUSKIN FL
300 PM EDT MON MAR 30 2015

NOTE: "FAIR" INDICATES FEW OR NO CLOUDS BELOW 12,000 FEET WITH NO
SIGNIFICANT WEATHER AND/OR OBSTRUCTIONS TO VISIBILITY.


FLZ001>010-012>015-112-114-115-302000-
PANHANDLE FLORIDA

CITY           SKY/WX    TMP DP  RH WIND       PRES   REMARKS
PENSACOLA      MOSUNNY   77  64  64 S16       30.18F
PENSACOLA NAS  MOSUNNY   75  64  68 SW18G29   30.20F
MILTON NAS     PTSUNNY   82  58  43 SW12G18   30.17
CRESTVIEW      MOSUNNY   79  60  52 SW7       30.18F
DUKE FIELD     PTSUNNY   78  62  58 SW13      30.17F
VALPARAISO     MOSUNNY   76  63  64 SW17G25   30.18F
MARY ESTHER    MOSUNNY   74  61  63 SW18      30.19
TRI COUNTY     CLOUDY    73  62  68 SW8       30.17F
PANAMA CITY    MOCLDY    74  62  66 S14G23    30.19F
TYNDALL AFB    MOSUNNY   72  63  73 SW10      30.22F
APALACHICOLA   PTSUNNY   74  58  57 SW10      30.23F

STATION/POSITION SKY/WX   TEMP    WIND        PRES    WAVE   SWELL
                          AIR SEA DIR/SP/G            HT/PER HT/PER
                          (F)     (DEG/KT/KT) (MB)    (FT/S) (FT/S)
30.1N   87.6W              69 67  220/ 10/ 12 1022.5F   3/ 5   2/ 9
29.2N   88.2W              71 71  190/ 14/ 16 1024.0F   3/ 5   2/ 6
28.8N   86.0W              71 75  240/ 14/ 16 1024.5F   1/ 4
PANAMA CITY BEAC           67 64  220/  9/ 10 1023.6F
CAPE SAN BLAS    NOT AVBL
TOWER C                    66     210/ 13/ 14 1023.6F
28.5N   84.5W              69 69  230/  8/ 10 1024.8F   1/ 4

$$
FLZ011-016>038-118-127-128-134-139-239-302000-
NORTH FLORIDA

CITY           SKY/WX    TMP DP  RH WIND       PRES   REMARKS
MARIANNA       LGT RAIN  70  65  84 CALM      30.16F
TALLAHASSEE    PTSUNNY   79  57  46 W12       30.19F THUNDER
PERRY          SUNNY     72  54  53 S14G22    30.22F
CROSS CITY       N/A     74  54  49 SW10G16   30.22F
LAKE CITY      FAIR      77  55  47 W15G21    30.17F
GAINESVILLE    MOSUNNY   76  52  43 W10G17    30.20F
MAYPORT NAS    PTSUNNY   76  51  41 W10G20    30.17F
JACKSONVILLE   PTSUNNY   75  52  44 W12G23    30.16F
JAX NAS        PTSUNNY   78  49  35 W9G17     30.18F
JAX CRAIG      CLOUDY    76  50  40 NW10      30.18F
JAX CECIL      PTSUNNY   75  52  43 W12G20    30.18F
FERNANDINA BEA MOCLDY    79  54  41 NW10      30.16F
ST AUGUSTINE   CLOUDY    75  49  39 W10       30.19F

STATION/POSITION SKY/WX   TEMP    WIND        PRES    WAVE   SWELL
                          AIR SEA DIR/SP/G            HT/PER HT/PER
                          (F)     (DEG/KT/KT) (MB)    (FT/S) (FT/S)
SHELL POINT                68     190/ 12/ 17   N/A
KEATON BEACH               65     230/ 11/ 13 1024.2F
CEDAR KEY                  66     220/  8/ 11 1024.5F
FERNANDINA                 71 62  250/ 10/ 15 1022.1F
30.7N   81.3W                 61                N/A     2/ 8
MAYPORT                    71 64  270/ 13/ 16 1022.8F
31.4N   80.9W              61 61  190/ 17/ 19 1020.2F   3/ 8   2/ 8
ST AUGUSTINE               65 62  140/ 13/ 14 1023.1F

$$
FLZ040-043>046-052-053-057-058-063-144-302000-
INTERIOR CENTRAL FLORIDA

CITY           SKY/WX    TMP DP  RH WIND       PRES   REMARKS
OCALA          SUNNY     75  46  35 W6        30.22F
THE VILLAGES     N/A     75  48  38 CALM      30.13F
LEESBURG       SUNNY     75  47  36 VRB5      30.24F
SANFORD        SUNNY     76  43  30 W7        30.23F
ORLANDO EXEC   SUNNY     75  42  30 N5G22     30.24F
ORLANDO INTL   SUNNY     76  44  32 NW13      30.24F
KISSIMMEE      SUNNY     75  43  31 NW7       30.25F
WINTER HAVEN   SUNNY     76  45  33 NW12      30.26F
LAKELAND       SUNNY     73  46  38 NW5       30.26F
BARTOW         SUNNY     73  43  33 W9        30.26F
OKEECHOBEE     SUNNY     73  45  35 CALM      30.24F

$$
FLZ041-047-054-059-064-141-147-302000-
EAST CENTRAL FLORIDA

CITY           SKY/WX    TMP DP  RH WIND       PRES   REMARKS
DAYTONA BEACH  MOSUNNY   77  45  32 N8        30.22F
DELAND           N/A    N/A N/A N/A W9        30.23F
NEW SMYRNA BEA SUNNY     73  52  46 E9        30.24F
JFK SPACE CTR  SUNNY     74  41  30 VRB6      30.22F
TITUSVILLE     SUNNY     73  45  35 E12       30.24F
CAPE CANAVERAL SUNNY     74  52  46 NE9       30.22F
PATRICK AFB    SUNNY     72  50  46 E8        30.23F
MELBOURNE      SUNNY     73  50  44 VRB6      30.23F
VERO BEACH     SUNNY     73  50  44 VRB3      30.24F
FT PIERCE      SUNNY     73  52  47 VRB6      30.23F

STATION/POSITION SKY/WX   TEMP    WIND        PRES    WAVE   SWELL
                          AIR SEA DIR/SP/G            HT/PER HT/PER
                          (F)     (DEG/KT/KT) (MB)    (FT/S) (FT/S)
28.5N   80.2W              65 71  280/  2/  4 1024.9F
28.9N   78.5W              68 76  220/  4/ 10 1024.1F
TRIDENT PIER               71 72  310/  4/  8 1024.8F
28.4N   80.5W                 70                N/A     2/ 8
27.5N   80.2W                 75                N/A     4/ 8   2/11

$$
FLZ050-056-061-142-242-148-248-149-249-151-251-155-255-
160-260-302000-
WEST CENTRAL FLORIDA

CITY           SKY/WX    TMP DP  RH WIND       PRES   REMARKS
CRYSTAL RIVER  FAIR      72  46  40 W9        30.25F
INVERNESS      FAIR     N/A N/A N/A CALM      30.24F
BROOKSVILLE    SUNNY     74  47  38 NW8       30.26F
ZEPHYRHILLS    FAIR      75  41  29 NW10G20   30.26F
CLEARWATER     SUNNY     73  48  41 NW8       30.27F
TAMPA INTL     SUNNY     75  47  36 NW10G18   30.26F
TAMPA EXEC     SUNNY     77  46  33 NW9       30.26F
PLANT CITY     SUNNY     75  48  38 N12G17    30.27F
MACDILL AFB    SUNNY     75  46  35 NW10      30.26F
PETER O KNIGHT SUNNY     77  48  36 W9        30.26F
ST PETERSBURG  SUNNY     71  48  43 S8        30.25F
SARASOTA       SUNNY     73  47  39 W15       30.25F
VENICE         FAIR      72  48  43 NW16      30.27F

STATION/POSITION SKY/WX   TEMP    WIND        PRES    WAVE   SWELL
                          AIR SEA DIR/SP/G            HT/PER HT/PER
                          (F)     (DEG/KT/KT) (MB)    (FT/S) (FT/S)
CEDAR KEY                  66     220/  8/ 11 1024.5F
28.5N   84.5W              69 69  230/  8/ 10 1024.8F   1/ 4
27.3N   84.2W                 74                N/A     2/ 5
CLEARWATER BEACH NOT AVBL
MIDDLE TAMPA BAY           67     290/  4/  8 1025.9F
VENICE                     68 73  310/ 16/ 17 1024.4F

$$
FLZ066-069-070-075>078-162-262-165-265-302000-
SOUTHWEST FLORIDA AND KEYS

CITY           SKY/WX    TMP DP  RH WIND       PRES   REMARKS
PUNTA GORDA    SUNNY     76  44  32 N8        30.26F
FT MYERS       SUNNY     78  40  25 N10       30.23F
SOUTHWEST INTL SUNNY     77  40  26 N10       30.23F
NAPLES         SUNNY     75  47  36 NW13      30.23F
MARCO ISLAND   CLEAR     77  46  33 W13G18    30.22F
IMMOKALEE      CLEAR    N/A N/A N/A CALM      30.23F
MARATHON       CLOUDY    75  59  57 NE9       30.21F
KEY WEST NAS   MOSUNNY   76  59  55 N13       30.21F
KEY WEST INTL  MOSUNNY   77  60  55 N12       30.21F

STATION/POSITION SKY/WX   TEMP    WIND        PRES    WAVE   SWELL
                          AIR SEA DIR/SP/G            HT/PER HT/PER
                          (F)     (DEG/KT/KT) (MB)    (FT/S) (FT/S)
VENICE                     68 73  310/ 16/ 17 1024.4F
NAPLES                     69 74  310/  8/ 11 1024.1F
26.0N   85.6W              71 75   50/  6/  8 1024.2F   2/ 5   2/ 5
DRY TORTUGAS               71      60/ 10/ 12 1023.7F
NW FL BAY                  73     180/  4/  5 1023.6
SAND KEY                   72      60/  7/  9 1023.1F
SOMBRERO KEY               72      60/ 10/ 11 1023.4F
LONG KEY                   71 73   10/  2/  2 1023.7F
MOLASSES REEF              72 76   50/  4/  5 1022.8F

$$
FLZ067-068-071>074-168-172>174-302000-
SOUTHEAST FLORIDA

CITY           SKY/WX    TMP DP  RH WIND       PRES   REMARKS
W PALM BEACH   MOSUNNY   75  49  39 E8        30.22F
FT LAUDER-EXEC MOSUNNY   77  50  38 MISG      30.21F
FT LAUDERDALE  MOSUNNY   76  53  44 E12       30.21F
POMPANO BEACH  MOSUNNY   75  50  41 E12       30.22F
PEMBROKE PINES PTSUNNY   77  52  41 SE7       30.22F
OPA LOCKA      CLOUDY    76  51  41 E7        30.21F
MIAMI          PTSUNNY   75  50  41 SE9       30.20F
WEST KENDALL   CLOUDY    77  51  40 MISG      30.20F
HOMESTEAD      MOSUNNY   76  55  47 E9        30.20F

STATION/POSITION SKY/WX   TEMP    WIND        PRES    WAVE   SWELL
                          AIR SEA DIR/SP/G            HT/PER HT/PER
                          (F)     (DEG/KT/KT) (MB)    (FT/S) (FT/S)
PORT EVERGLADES            74      90/  4/  8 1023.6F
VIRGINIA KEY               71 75   80/  6/  9 1023.0F
LAKE WORTH                 71 77   90/  6/  7 1023.8F
SETTLEMENT POINT           71      10/  6/  8 1024.2F

$$



USA.gov is the U.S. government's official web portal to all federal, state and local government web resources and services.